{"data":{"norad_id":65394,"epoch":"2026-09-20T13:23:39.417504Z","epoch_age_seconds":109838,"freshness":"FRESH","line1":"1 65394U 25191R   26263.55809511  .00009932  00000+0  30946-3 0  9995","line2":"2 65394  97.2850 129.5254 0002356  60.3341 299.8136 15.33453351 59646","mean_motion":15.33453351,"eccentricity":0.0002356,"inclination_deg":97.285,"raan_deg":129.5254,"arg_perigee_deg":60.3341,"mean_anomaly_deg":299.8136,"bstar":0.00030946,"rev_number":5964,"period_min":93.905693255093,"perigee_km":463.90596269507,"apogee_km":467.13069308557,"semimajor_km":6843.6553278903,"source":"CELESTRAK","updated_at":"2026-09-21T09:00:35.600160Z"}}